Apalachicola Bay - St. George Island Weather Center

Moon Phase Calendar



Online Cameras

 


      

Current Conditions in Apalachicola
12/1/2020 3:26:49 AM

36°F
Feels Like 25
Clear
Humidity
69%
Pressure
30.15"
Wind
11.4 mph (N)
Dew Point
27°F
UV Index
0/10 (Low)
Visibility
6 mi

Hourly Forecast

Date & Time Tue, Dec 1
3:00 AM
Tue, Dec 1
4:00 AM
Tue, Dec 1
5:00 AM
Tue, Dec 1
6:00 AM
Tue, Dec 1
7:00 AM
Tue, Dec 1
8:00 AM
Tue, Dec 1
9:00 AM
Tue, Dec 1
10:00 AM
Tue, Dec 1
11:00 AM
Tue, Dec 1
12:00 PM
Tue, Dec 1
1:00 PM
Tue, Dec 1
2:00 PM
Tue, Dec 1
3:00 PM
Tue, Dec 1
4:00 PM
Tue, Dec 1
5:00 PM
Tue, Dec 1
6:00 PM
Tue, Dec 1
7:00 PM
Tue, Dec 1
8:00 PM
Tue, Dec 1
9:00 PM
Tue, Dec 1
10:00 PM
Tue, Dec 1
11:00 PM
Wed, Dec 2
12:00 AM
Wed, Dec 2
1:00 AM
Wed, Dec 2
2:00 AM
Wed, Dec 2
3:00 AM
Wed, Dec 2
4:00 AM
Wed, Dec 2
5:00 AM
Wed, Dec 2
6:00 AM
Wed, Dec 2
7:00 AM
Wed, Dec 2
8:00 AM
Wed, Dec 2
9:00 AM
Wed, Dec 2
10:00 AM
Wed, Dec 2
11:00 AM
Wed, Dec 2
12:00 PM
Wed, Dec 2
1:00 PM
Wed, Dec 2
2:00 PM
Wed, Dec 2
3:00 PM
Wed, Dec 2
4:00 PM
Wed, Dec 2
5:00 PM
Wed, Dec 2
6:00 PM
Wed, Dec 2
7:00 PM
Wed, Dec 2
8:00 PM
Wed, Dec 2
9:00 PM
Wed, Dec 2
10:00 PM
Wed, Dec 2
11:00 PM
Thu, Dec 3
12:00 AM
Thu, Dec 3
1:00 AM
Thu, Dec 3
2:00 AM
Condition
Clear

Clear

Clear

Clear

Clear

Clear

Clear

Clear

Clear

Clear

Clear

Clear

Clear

Clear

Clear

Clear

Clear

Clear

Clear

Clear

Clear

Clear

Clear

Clear

Clear

Clouds

Clouds

Clouds

Clouds

Clouds

Clouds

Clouds

Clouds

Clouds

Clouds

Clear

Clear

Clouds

Clouds

Clouds

Clouds

Clear

Clear

Clouds

Clouds

Clouds

Clouds

Clouds
Temperature 36°F37°F37°F36°F36°F37°F39°F41°F44°F47°F50°F51°F52°F52°F51°F48°F47°F45°F45°F44°F44°F43°F43°F42°F42°F42°F41°F41°F41°F42°F44°F47°F50°F53°F56°F58°F59°F59°F57°F54°F53°F53°F53°F53°F54°F55°F56°F57°F
Feels Like 23°F24°F25°F25°F24°F25°F27°F31°F34°F37°F40°F42°F43°F43°F42°F40°F38°F38°F37°F37°F38°F37°F36°F35°F34°F34°F33°F33°F33°F32°F35°F37°F41°F45°F47°F50°F51°F51°F49°F46°F45°F44°F44°F45°F46°F46°F47°F48°F
Cloudiness 1%1%0%0%0%0%0%0%0%0%0%0%0%0%0%0%0%0%0%0%0%0%0%0%3%32%44%56%63%95%97%98%99%99%97%1%0%30%45%40%34%0%0%33%50%60%67%100%
Visibility 6 mi6 mi6 mi6 mi6 mi6 mi6 mi6 mi6 mi6 mi6 mi6 mi6 mi6 mi6 mi6 mi6 mi6 mi6 mi6 mi6 mi6 mi6 mi6 mi6 mi6 mi6 mi6 mi6 mi6 mi6 mi6 mi6 mi6 mi6 mi6 mi6 mi6 mi6 mi6 mi6 mi6 mi6 mi6 mi6 mi6 mi6 mi6 mi
Precipitation 0%0%0%0%0%0%0%0%0%0%0%0%0%0%0%0%0%0%0%0%0%0%0%0%0%0%0%0%0%0%0%0%0%0%0%0%0%0%0%0%0%0%0%0%0%0%0%0%
Humidity 69%71%75%78%78%77%71%63%56%50%46%43%42%42%45%51%53%56%57%58%59%59%61%63%64%65%67%66%67%66%60%53%47%42%37%35%33%34%37%42%44%48%50%52%53%55%56%57%
Dew Point 27°F29°F30°F30°F30°F26°F25°F24°F24°F23°F23°F24°F25°F26°F27°F27°F27°F27°F27°F27°F26°F26°F26°F27°F28°F28°F28°F29°F29°F29°F29°F29°F27°F26°F26°F25°F26°F28°F31°F32°F32°F34°F35°F36°F38°F39°F41°F42°F
Pressure 30.15"30.15"30.21"30.21"30.24"30.27"30.3"30.3"30.3"30.27"30.24"30.21"30.21"30.21"30.21"30.24"30.24"30.24"30.24"30.27"30.27"30.27"30.27"30.27"30.27"30.27"30.3"30.3"30.33"30.33"30.33"30.36"30.36"30.36"30.33"30.3"30.3"30.27"30.27"30.27"30.27"30.27"30.27"30.3"30.3"30.27"30.27"30.27"
Wind Speed 14.8 mph14.8 mph13.6 mph13.5 mph14.5 mph14.2 mph13.6 mph12.1 mph11.5 mph10.7 mph9.8 mph9.1 mph9.3 mph9.9 mph8.6 mph7.8 mph8 mph7.4 mph8.1 mph7.1 mph3.6 mph4.3 mph5.5 mph6.5 mph7.6 mph7.7 mph7.8 mph9.1 mph8.7 mph9.6 mph10 mph10.6 mph9.2 mph8.2 mph7.7 mph6.8 mph7 mph7.8 mph8.5 mph9.4 mph9.5 mph10.4 mph9 mph9.7 mph10 mph11.8 mph12.3 mph12.5 mph
Wind
Direction
329°
NNW
330°
NNW
331°
NNW
332°
NNW
337°
NNW
339°
NNW
342°
NNW
346°
NNW
345°
NNW
344°
NNW
346°
NNW
342°
NNW
345°
NNW
347°
NNW
345°
NNW
346°
NNW
355°
N

N
24°
NNE
31°
NNE
28°
NNE

N
354°
N

N

N
22°
NNE
24°
NNE
30°
NNE
31°
NNE
33°
NNE
34°
NE
38°
NE
44°
NE
52°
NE
58°
ENE
57°
ENE
59°
ENE
67°
ENE
77°
ENE
73°
ENE
74°
ENE
74°
ENE
70°
ENE
80°
E
93°
E
100°
E
109°
ESE
109°
ESE

Daily Forecast

Date High Low Precip. Humidity
Today
Dec 1

Clear
52 °F
36 °F
0%
50%
Wednesday
Dec 2

Clouds
59 °F
41 °F
0%
42%
Thursday
Dec 3

Clouds
65 °F
56 °F
0%
65%
Friday
Dec 4

Rain
70 °F
64 °F
100%
79%
Saturday
Dec 5

Rain
69 °F
53 °F
100%
58%
Sunday
Dec 6

Clear
60 °F
50 °F
0%
45%
Monday
Dec 7

Clear
60 °F
48 °F
0%
49%
Tuesday
Dec 8

Clear
59 °F
44 °F
0%
40%
Wednesday
Dec 9

Clear
63 °F
45 °F
0%
41%
Thursday
Dec 10

Clouds
65 °F
52 °F
0%
51%
Friday
Dec 11

Clouds
67 °F
57 °F
0%
63%
Saturday
Dec 12

Clouds
68 °F
59 °F
0%
64%
Sunday
Dec 13

Rain
73 °F
58 °F
53%
66%
Monday
Dec 14

Clear
61 °F
45 °F
0%
39%
Tuesday
Dec 15

Rain
56 °F
50 °F
49%
61%
Wednesday
Dec 16

Clear
58 °F
42 °F
23%
39%


Temperature 8-14 Day Outlook



Precipitation 8-14 Day Outlook




Quick Links
Apalachicola Bay - St. George Island News
Apalachicola Bay - St. George Island Photos
Apalachicola Bay - St. George Island Videos




About Us
Contact Us
Site Map
Search Site
Advertise With Us
   
Apalachicola.USGulf.info
THE APALACHICOLA BAY - ST. GEORGE ISLAND WEBSITE

Copyright 2020, Coastal Town
Privacy    |    Legal